Regional Weather Roundup
Issued by NWS Kansas City/Pleasant Hill, MO

Home | Current Version | Previous Version | Text Only | Print | Product List | Glossary On
Versions: 1 2 3 4 5 6 7 8 9 10 11 12 13 14 15 16 17 18 19 20 21 22 23 24 25 26 27 28 29 30 31 32 33 34 35 36 37 38 39 40 41 42 43 44 45 46 47 48 49 50
977
ASUS43 KEAX 061310
RWREAX

WEATHER ROUNDUP FOR EASTERN KANSAS AND NORTHWEST MISSOURI
NATIONAL WEATHER SERVICE KANSAS CITY/PLEASANT HILL MO
700 AM CST TUE DEC 06 2016

KSZ040-057-103>105-MOZ028-029-037-043-061400-
...KANSAS CITY METROPOLITAN AREA...

CITY           SKY/WX    TMP DP  RH WIND       PRES   REMARKS
K.C. INTL      MOCLDY    31  22  69 NW14G24   29.96R WCI  21
K.C. DOWNTOWN  CLOUDY    35  28  75 NW16      29.96R WCI  25
LEES SUMMIT    CLOUDY    34  26  72 NW14G24   29.93R WCI  25
OLATHE - IXD   CLOUDY    32  25  75 NW18G29   29.95R WCI  20
OLATHE - OJC   CLOUDY    32  24  72 N17G33    29.94R WCI  21
LAWRENCE       CLEAR     31  22  69 NW15G24   29.98R WCI  20

$$

MOZ001>008-011>017-020>025-030>033-038>040-044>046-053-054-061400-
...NORTHERN AND CENTRAL MISSOURI...

CITY           SKY/WX    TMP DP  RH WIND       PRES   REMARKS
ST. JOSEPH     CLOUDY    31  21  66 NW17G25   29.98R WCI  19
MOSBY            N/A     34  27  75 NW12G21   29.94R WCI  25
WARRENSBURG    CLOUDY    34  32  93 NW17G25   29.90R WCI  23
WHITEMAN AFB   CLOUDY    35  35 100 N16       29.87R WCI  25
CLINTON        CLOUDY    36  36 100 N12       29.90R WCI  27
SEDALIA        CLOUDY    33  32  96 NW14      29.88R FOG     WCI  23
WARSAW         NOT AVBL
CHILLICOTHE      N/A     35  30  82 NW12G23   29.91R WCI  27
KIRKSVILLE     CLOUDY    37  36  96 NW9       29.83R FOG     WCI  30

$$

MOZ041-047>049-056>058-063>065-088>090-097-061400-
...EASTERN AND SOUTHERN MISSOURI...

CITY           SKY/WX    TMP DP  RH WIND       PRES   REMARKS
ST. LOUIS INTL CLOUDY    38  34  85 N10       29.79R FOG     WCI  31
SPIRIT OF STL  CLOUDY    38  36  92 NW6       29.81R WCI  33
COLUMBIA       FOG       32  31  96 N9        29.82R VSB<1/4 WCI  24
JEFFERSON CITY FOG       31  31 100 NW5       29.83R VSB 1/2 WCI  26
ROLLA          SNOW      34  34 100 NW7       29.79R VSB<1/4 WCI  28
OSAGE BEACH    CLEAR     35  34  96 NW7       29.83R WCI  29
SPRINGFIELD    MOCLDY    37  35  92 NW10      29.83R WCI  30
BRANSON        PTCLDY    37  37 100 NW10      29.83R WCI  30
JOPLIN         CLOUDY    37  37 100 N13       29.91R WCI  29
WEST PLAINS    CLOUDY    41  38  89 N15G22    29.78R WCI  33

$$

IAZ060-094-KSZ022-034>040-054-083-096-NEZ052-066-093-061400-
...KANSAS...SOUTHEAST NEBRASKA AND IOWA...

CITY           SKY/WX    TMP DP  RH WIND       PRES   REMARKS
TOPEKA         PTCLDY    31  21  66 NW9       30.00R WCI  23
MANHATTAN      CLEAR     29  15  56 N6        30.04R WCI  23
EMPORIA        CLEAR     29  22  75 N14G23    29.99R WCI  18
CHANUTE        PTCLDY    34  27  75 N14       29.95R WCI  25
WICHITA        PTCLDY    30  21  69 N15       30.03R WCI  19
OMAHA          CLEAR     23  11  60 NW17      29.99R WCI   9
LINCOLN        PTCLDY    24  11  57 NW12      30.01S WCI  13
FALLS CITY     CLEAR     28  20  71 NW13      29.99R WCI  17
LAMONI         MOCLDY    30  22  72 NW15      29.89R WCI  19
DES MOINES     CLOUDY    30  20  66 NW15      29.88R WCI  19

$$





USA.gov is the U.S. government's official web portal to all federal, state and local government web resources and services.